Погода в Багате

Узбекистан     41°21′12″N   60°48′43″E
темп.,
°C
ветер,
м/с
пор.,
м/с
влажн.,
%
обл.,
%
осадки,
мм/ч
давл.,
гПа
погр.,
м
27 февраля, сб
сб2723:00−1ююз5819100 0.1 1029497
02:00−1ююз6112291 0.0 1027406
05:000ююз7112489 0.1 1026594
08:000ююз91434100 0.0 1025501
11:00+1юз81254100 0.2 1026462
14:00+2юз81165100 0.1 1025450
17:00+4юз5957100 0.1 1024412
20:00+3ю456197 0.0 102546
28 февраля, вс
вс2823:00+2ю456269 0.0 102432
02:00+1ю45440 0.0 102352
05:00+1ююв45330 0.0 102251
08:00+1ююв453044 0.0 102169
11:00+6ююв562055 0.0 1021308
14:00+10ююв561978 0.0 1019623
17:00+11ююв452177 0.0 1017789
20:00+8юв45327 0.0 101756
1 марта, пн
пн123:00+6ююв45383 0.0 101748
02:00+5ююв34400 0.0 101730
05:00+4ююв34420 0.0 101622
08:00+3ююв34430 0.0 101722
11:00+9ю23310 0.0 1017237
14:00+14зюз34240 0.0 1017653
17:00+15з45220 0.0 1016918
20:00+11зсз34300 0.0 101828
2 марта, вт
вт223:00+9з34330 0.0 102026
02:00+6ссз33400 0.0 102126
05:00+3ссв46710 0.0 1022115
08:00+2ссв589030 0.0 1024228
11:00+5ссв566245 0.0 1025434
14:00+8с335326 0.0 1025809
17:00+10с334948 0.0 10241180
20:00+8св455989 0.0 1025498
3 марта, ср
ср323:00+5св237091 0.0 102585
02:00+4всв337661 0.0 102452
05:00+3в337676 0.0 102371
08:00+3в3378100 0.0 102367
11:00+6юв446193 0.0 1022525
14:00+9юв335275 0.0 1020899
17:00+10юв224745 0.0 1018990
20:00+9в345170 0.0 1017117